[Date Prev][Date Next][Thread Prev][Thread Next] - [Date Index][Thread Index][Author Index]
2 Line ISS Keps 7-27
- Subject: [sarex] 2 Line ISS Keps 7-27
- From: "Dave Larsen PhD" <doc@xxxxxxxxxxx>
- Date: Sat, 27 Jul 2002 03:54:56 -0700
ISS
1 25544U 98067A 02208.14981007 .00019177 00000-0 24321-3 0 7013
2 25544 51.6369 212.3122 0008765 42.0844 44.6322 15.59431897210267
----
Via the sarex mailing list at AMSAT.ORG courtesy of AMSAT-NA.
To unsubscribe, send "unsubscribe sarex" to Majordomo@amsat.org
AMSAT Home